LUCH (OLYMP)            
1 40258U 14058A   19260.92478209 -.00000006  00000-0  00000-0 0  9993
2 40258   0.0337 236.4878 0000119 302.3492 216.5793  1.00274257 18231
BREEZE-M R/B            
1 40259U 14058B   19260.96678795 -.00000135  00000-0  00000+0 0  9992
2 40259   4.1023  77.2737 0600398 146.6749 217.6944  0.91687225 16660
BREEZE-M DEB [TANK]     
1 40260U 14058C   19261.27593207 -.00000081  00000-0 -10925-2 0  9994
2 40260  45.2484 194.6504 7068917 138.3729 305.4929  2.27177031 41233